Time,TemperatureF,DewpointF,PressureIn,WindDirection,WindDirectionDegrees,WindSpeedMPH,WindSpeedGustMPH,Humidity,HourlyPrecipIn,Conditions,Clouds,dailyrainin,SoftwareType,DateUTC
2013-06-22 08:22:00,69.0,35.0,27.18,ESE,104,4.0,-999.0,29,0.00,,,0.00,,2013-06-22 15:22:00,
2013-06-22 08:34:00,69.0,35.0,27.18,ESE,104,4.0,-999.0,29,0.00,,,0.00,,2013-06-22 15:34:00,
2013-06-22 08:43:00,69.0,35.0,27.18,ESE,104,4.0,-999.0,29,0.00,,,0.00,,2013-06-22 15:43:00,
2013-06-22 09:12:00,75.0,37.0,27.18,North,360,3.0,-999.0,25,0.00,,,0.00,,2013-06-22 16:12:00,
2013-06-22 09:22:00,75.0,37.0,27.18,North,360,3.0,-999.0,25,0.00,,,0.00,,2013-06-22 16:22:00,
2013-06-22 09:34:00,75.0,37.0,27.18,North,360,3.0,-999.0,25,0.00,,,0.00,,2013-06-22 16:34:00,
2013-06-22 09:43:00,75.0,37.0,27.18,North,360,3.0,-999.0,25,0.00,,,0.00,,2013-06-22 16:43:00,
2013-06-22 10:22:00,80.0,37.0,27.17,North,10,3.0,-999.0,21,0.00,,,0.00,,2013-06-22 17:22:00,
2013-06-22 10:34:00,80.0,37.0,27.17,North,10,3.0,-999.0,21,0.00,,,0.00,,2013-06-22 17:34:00,
2013-06-22 10:43:00,80.0,37.0,27.17,North,10,3.0,-999.0,21,0.00,,,0.00,,2013-06-22 17:43:00,
2013-06-22 11:12:00,83.0,34.0,27.16,SW,214,8.0,-999.0,17,0.01,,,0.00,,2013-06-22 18:12:00,
2013-06-22 11:22:00,83.0,34.0,27.16,SW,214,8.0,-999.0,17,0.01,,,0.00,,2013-06-22 18:22:00,
2013-06-22 11:34:00,83.0,34.0,27.16,SW,214,8.0,-999.0,17,0.01,,,0.00,,2013-06-22 18:34:00,
2013-06-22 11:43:00,83.0,34.0,27.16,SW,214,8.0,-999.0,17,0.01,,,0.00,,2013-06-22 18:43:00,
2013-06-22 12:22:00,86.0,33.0,27.14,South,179,12.0,-999.0,15,0.01,,,0.00,,2013-06-22 19:22:00,
2013-06-22 12:33:00,86.0,33.0,27.14,South,179,12.0,-999.0,15,0.01,,,0.00,,2013-06-22 19:33:00,
2013-06-22 12:42:00,86.0,33.0,27.14,South,179,12.0,-999.0,15,0.01,,,0.00,,2013-06-22 19:42:00,
2013-06-22 13:22:00,88.0,33.0,27.13,SSW,208,5.0,-999.0,14,0.01,,,0.01,,2013-06-22 20:22:00,
2013-06-22 13:33:00,88.0,33.0,27.13,SSW,208,5.0,-999.0,14,0.01,,,0.01,,2013-06-22 20:33:00,
2013-06-22 13:43:00,88.0,33.0,27.13,SSW,208,5.0,-999.0,14,0.01,,,0.01,,2013-06-22 20:43:00,
2013-06-22 14:22:00,87.0,32.0,27.11,SSW,210,10.0,-999.0,14,0.01,,,0.01,,2013-06-22 21:22:00,
2013-06-22 14:33:00,87.0,32.0,27.11,SSW,210,10.0,-999.0,14,0.01,,,0.01,,2013-06-22 21:33:00,
2013-06-22 14:43:00,87.0,32.0,27.11,SSW,210,10.0,-999.0,14,0.01,,,0.01,,2013-06-22 21:43:00,
2013-06-22 15:12:00,88.0,33.0,27.10,SSW,211,11.0,-999.0,14,0.01,,,0.01,,2013-06-22 22:12:00,
2013-06-22 15:23:00,88.0,33.0,27.10,SSW,211,11.0,-999.0,14,0.01,,,0.01,,2013-06-22 22:23:00,
2013-06-22 15:33:00,88.0,33.0,27.10,SSW,211,11.0,-999.0,14,0.01,,,0.01,,2013-06-22 22:33:00,
2013-06-22 15:43:00,88.0,33.0,27.10,SSW,211,11.0,-999.0,14,0.01,,,0.01,,2013-06-22 22:43:00,
2013-06-22 16:22:00,88.0,32.0,27.10,SSW,207,10.0,-999.0,14,0.00,,,0.01,,2013-06-22 23:22:00,
2013-06-22 16:34:00,88.0,32.0,27.10,SSW,207,10.0,-999.0,14,0.00,,,0.01,,2013-06-22 23:34:00,
2013-06-22 16:43:00,88.0,32.0,27.10,SSW,207,10.0,-999.0,14,0.00,,,0.01,,2013-06-22 23:43:00,
2013-06-22 17:22:00,87.0,32.0,27.08,SSW,195,10.0,-999.0,14,0.00,,,0.01,,2013-06-23 00:22:00,
2013-06-22 17:33:00,87.0,32.0,27.08,SSW,195,10.0,-999.0,14,0.00,,,0.01,,2013-06-23 00:33:00,
2013-06-22 17:42:00,87.0,32.0,27.08,SSW,195,10.0,-999.0,14,0.00,,,0.01,,2013-06-23 00:42:00,
2013-06-22 18:11:00,85.0,31.0,27.08,WSW,237,9.0,-999.0,14,0.00,,,0.01,,2013-06-23 01:11:00,
2013-06-22 18:21:00,85.0,31.0,27.08,WSW,237,9.0,-999.0,14,0.00,,,0.01,,2013-06-23 01:21:00,
2013-06-22 18:32:00,85.0,31.0,27.08,WSW,237,9.0,-999.0,14,0.00,,,0.01,,2013-06-23 01:32:00,
2013-06-22 18:42:00,85.0,31.0,27.08,WSW,237,9.0,-999.0,14,0.00,,,0.01,,2013-06-23 01:42:00,
2013-06-22 19:11:00,84.0,31.0,27.08,SSW,204,2.0,-999.0,15,0.00,,,0.01,,2013-06-23 02:11:00,
2013-06-22 19:21:00,84.0,31.0,27.08,SSW,204,2.0,-999.0,15,0.00,,,0.01,,2013-06-23 02:21:00,
2013-06-22 19:31:00,84.0,31.0,27.08,SSW,204,2.0,-999.0,15,0.00,,,0.01,,2013-06-23 02:31:00,
2013-06-22 19:41:00,84.0,31.0,27.08,SSW,204,2.0,-999.0,15,0.00,,,0.01,,2013-06-23 02:41:00,
2013-06-22 20:11:00,79.0,33.0,27.08,South,186,8.0,-999.0,19,0.00,,,0.01,,2013-06-23 03:11:00,
2013-06-22 20:21:00,79.0,33.0,27.08,South,186,8.0,-999.0,19,0.00,,,0.01,,2013-06-23 03:21:00,
2013-06-22 20:31:00,79.0,33.0,27.08,South,186,8.0,-999.0,19,0.00,,,0.01,,2013-06-23 03:31:00,
2013-06-22 20:41:00,79.0,33.0,27.08,South,186,8.0,-999.0,19,0.00,,,0.01,,2013-06-23 03:41:00,
2013-06-22 21:11:00,77.0,33.0,27.10,SW,221,8.0,-999.0,20,-99.99,,,0.01,,2013-06-23 04:11:00,
2013-06-22 21:21:00,77.0,33.0,27.10,SW,221,8.0,-999.0,20,-99.99,,,0.01,,2013-06-23 04:21:00,
2013-06-22 21:31:00,77.0,33.0,27.10,SW,221,8.0,-999.0,20,-99.99,,,0.01,,2013-06-23 04:31:00,
2013-06-22 21:42:00,77.0,33.0,27.10,SW,221,8.0,-999.0,20,-99.99,,,0.01,,2013-06-23 04:42:00,
2013-06-22 23:12:00,72.0,34.0,27.12,SW,224,4.0,-999.0,25,-99.99,,,0.00,,2013-06-23 06:12:00,
2013-06-22 23:22:00,72.0,34.0,27.12,SW,224,4.0,-999.0,25,-99.99,,,0.00,,2013-06-23 06:22:00,
2013-06-22 23:33:00,72.0,34.0,27.12,SW,224,4.0,-999.0,25,-99.99,,,0.00,,2013-06-23 06:33:00,
2013-06-22 23:43:00,72.0,34.0,27.12,SW,224,4.0,-999.0,25,-99.99,,,0.00,,2013-06-23 06:43:00,